COSMOS 2251 DEB, 35793

Orbit data source: Space-Track

COSMOS 2251 DEB, 35793 is space debris in LEO originally from a launch on Wed, 16 Jun 1993 UTC launched from the Plesetsk Missile And Space Complex (PKMTR). The debris from Iridium 33, an American commercial communications satellite, has been tracked extensively since its accidental collision with the defunct Russian satellite Cosmos 2251 in 2009. This event, occurring at high speed in low Earth orbit (LEO), generated thousands of pieces of space debris, significantly increasing the risk of further collisions. The Iridium 33 debris cloud has impacted space traffic management and orbital debris mitigation strategies, making it a subject of ongoing study in space situational awareness.

Loading next visibility...
Identifier
35793, 1993-036ASP
Orbit
LEO
Country
Flag of CISCIS
Related business
Manufacturer
Unknown
Mission
Spacecraft
Bus & Motor
Unknown
Mass
Unknown
Launch date (UTC)
1993-06-16 (33 years ago)
Launch vehicle
Unknown
Launch site
Plesetsk Missile And Space Complex (PKMTR)
Object type
Payload
Rocket body
Debris
Shape & HBR
Unknown shape, 0.1 m
Radar Cross Section
Small (<0.1 m²)

Expand to show TLE details & history
Last TLE update: 2 days ago

TLE from 2 days ago
0 COSMOS 2251 DEB
1 35793U 93036ASP 26161.47590317  .00009612  00000-0  11701-2 0  9990
2 35793  74.0393  65.4872 0006094 125.1234  51.5394 14.83516854684587
Epoch: 2026-06-10T11:25Z
TLE epoch observation values (Epoch: 2026-06-10T11:25:18.033Z)
Latitude
3.06191°
Longitude
174.45673°
Altitude
617.917 km
Speed
7.552 km/s
True Right ascension
16h 18m 27s
True Declination
3° 02' 36"
Sunlit
Object was in full shadow at epoch
Visualization orbit readout
Latitude
Unknown
Longitude
Unknown
Altitude
Unknown
Speed
Unknown
Apparent Right ascension
Unknown
Apparent Declination
Unknown
Sunlit
N/A
Visualization observer readout
Local Sidereal Time
16:58:50
Azimuth
Unknown
Elevation
Unknown
Doppler factor
Unknown
Orbital elements
Apogee altitude
620.079 km
Perigee altitude
611.554 km
Semi-major axis
6,993.954 km
Eccentricity
0.00061
Inclination
74.0393°
RAAN
65.4872°
Arg. of periapsis
125.1234°
True anomaly
51.59411°
Mean anomaly
51.5394°
Eccentric anomaly
51.56675°
Mean motion
3.71073 °/min
Orbital period
97.02 mins
BSTAR
0.0011701
Loading maneuver chart data...
Computing Atmospheric mass density...

Documentation

Showing up to 5 results
|